Preview of NWS' New Version of Forecast
This preview is not operational and should not be used for support decisions.

Regional Weather Roundup (RWR)

Issued by National Weather Service (NWS)

                            
000
ASUS42 KTBW 150717
RWRFL 
FLORIDA REGIONAL WEATHER ROUNDUP
NATIONAL WEATHER SERVICE TAMPA BAY RUSKIN FL
300 AM EDT SUN SEP 15 2019

NOTE: "FAIR" INDICATES FEW OR NO CLOUDS BELOW 12,000 FEET WITH NO
SIGNIFICANT WEATHER AND/OR OBSTRUCTIONS TO VISIBILITY.

FLZ001>010-012>015-112-114-115-150800-
PANHANDLE FLORIDA
  
CITY           SKY/WX    TMP DP  RH WIND       PRES   REMARKS
PENSACOLA      FAIR      81  72  74 NE6       30.04S                  
PENSACOLA NAS  FAIR      82  71  69 NE10      30.03R                  
MILTON NAS     FAIR      75  32  20 NE3       30.05S                  
CRESTVIEW      FAIR      76  69  79 CALM      30.07S                  
DUKE FIELD     FAIR      77  69  74 NE3       30.04F                  
VALPARAISO     FAIR      81  68  65 NE6       30.03S                  
MARY ESTHER    PTCLDY    80  69  67 CALM      30.02S                  
TRI COUNTY     FAIR      76  70  82 N3        30.06                   
PANAMA CITY    FAIR      78  69  73 NE5       30.03S                  
TYNDALL AFB    FAIR      78  70  75 E7        30.03S                  
APALACHICOLA   FAIR      77  70  79 NE7       30.01F                  

STATION/POSITION SKY/WX   TEMP    WIND        PRES    WAVE   SWELL
                          AIR SEA DIR/SP/G            HT/PER HT/PER
                          (F)     (DEG/KT/KT) (MB)    (FT/S) (FT/S)
30.1N   87.6W              86 86   80/ 21/ 25 1016.7R   5/ 6
29.2N   88.2W              85      40/ 12/ 14 1016.2R   4/ 7   3/ 7
28.8N   86.0W                 85   80/ 21/ 25 1014.8F   5/ 6
PANAMA CITY BEAC           81 85   80/  8/ 14 1017.2
TOWER C                    81      80/ 22/ 24 1016.3F
28.5N   84.5W              83      70/ 17/ 23 1015.5F

$$
FLZ011-016>038-118-127-128-134-139-239-150800-
NORTH FLORIDA
  
CITY           SKY/WX    TMP DP  RH WIND       PRES   REMARKS
MARIANNA       FAIR      75  72  90 E5        30.05S                  
TALLAHASSEE    FAIR      77  73  87 NE7       30.03F                  
PERRY          FAIR      76  74  92 NE6       30.03F                  
LIVE OAK       CLOUDY    75  75 100 N3        30.02F                  
CROSS CITY       N/A     76  73  90 NE8       30.01S                  
LAKE CITY      CLOUDY    73  72  94 N7        30.02F                  
GAINESVILLE    FAIR      75  72  90 N6        30.02F                  
WILLISTON      FAIR      76  74  95 NE7       29.99F                  
PALATKA        MOCLDY    75  73  94 NE6       29.99F                  
MAYPORT NAS    FAIR      82  76  81 NE18      29.99F                  
JACKSONVILLE   MOCLDY    81  73  76 NE8       29.99F                  
JAX NAS        FAIR      81  75  82 NE10      30.00F                  
JAX CECIL      MOCLDY    77  75  94 CALM      29.99F                  
FERNANDINA BEA FAIR      82  75  81 NE17G23   30.00F                  
ST AUGUSTINE   FAIR     N/A N/A N/A NE13      29.99F                  
PALM COAST     MOCLDY    79  75  89 NE8       29.95F                  

STATION/POSITION SKY/WX   TEMP    WIND        PRES    WAVE   SWELL
                          AIR SEA DIR/SP/G            HT/PER HT/PER
                          (F)     (DEG/KT/KT) (MB)    (FT/S) (FT/S)
SHELL POINT      NOT AVBL
KEATON BEACH               75      30/  5/  6 1016.5F
CEDAR KEY                  78      40/  8/ 10 1015.8F
FERNANDINA                 87 83   30/  8/ 16 1017.2
30.7N   81.3W                 83                N/A     7/ 9   2/11
MAYPORT                    83 83   50/ 16/ 22 1016.4
31.4N   80.9W              81 83   60/ 16/ 19 1016.3F   6/ 9   3/ 9
ST AUGUSTINE               82 83   50/ 19/ 20 1014.9F

$$
FLZ040-043>046-052-053-057-058-063-144-150800-
INTERIOR CENTRAL FLORIDA
  
CITY           SKY/WX    TMP DP  RH WIND       PRES   REMARKS
OCALA          FAIR      76  75  97 N5        29.98F                  
LEESBURG       FAIR      78  75  90 N8        29.97F                  
SANFORD        LGT RAIN  77  75  93 NE6       29.94F FOG              
ORLANDO EXEC   FAIR      78  75  90 N5        29.94F                  
ORLANDO INTL   CLOUDY    77  75  93 NW7       29.94F                  
KISSIMMEE      FAIR      78  75  90 NW6       29.95F                  
WINTER HAVEN   FAIR      79  75  87 N7        29.96F                  
BARTOW           N/A     77  75  94 N6        29.94F                  
SEBRING        FAIR      76  75  97 NW7       29.93F                  
OKEECHOBEE       N/A     73  72  94 NW3       29.90F                  

$$
FLZ041-047-054-059-064-141-147-150800-
EAST CENTRAL FLORIDA
  
CITY           SKY/WX    TMP DP  RH WIND       PRES   REMARKS
DAYTONA BEACH  FAIR      81  77  88 NE16G22   29.94F                  
DELAND         FAIR      75  75 100 N5        29.94F                  
JFK SPACE CTR  CLEAR     78  76  93 N3        29.90F                  
CAPE CANAVERAL FAIR      79  79  99 N9        29.88F                  
PATRICK AFB    FAIR      80  80 100 N9        29.89F                  
MELBOURNE      CLOUDY    79  76  90 NW6       29.90F                  
VERO BEACH     FAIR      78  75  90 NW8       29.89F                  
FT PIERCE      FAIR      77  74  90 NW5       29.89F                  
STUART         FAIR      77  73  88 W7        29.90F                  

STATION/POSITION SKY/WX   TEMP    WIND        PRES    WAVE   SWELL
                          AIR SEA DIR/SP/G            HT/PER HT/PER
                          (F)     (DEG/KT/KT) (MB)    (FT/S) (FT/S)
28.5N   80.2W              82 84   30/ 17/ 21 1012.3F
28.9N   78.5W              81 82              1009.8F  11/10   7/10
TRIDENT PIER               78 84  350/  6/  7 1014.3F
28.4N   80.5W                 83                N/A     4/ 9   2/11
27.5N   80.2W                 83                N/A     6/ 8   2/11

$$
FLZ050-056-061-142-242-148-248-149-249-151-251-155-255-
160-260-150800-
WEST CENTRAL FLORIDA
  
CITY           SKY/WX    TMP DP  RH WIND       PRES   REMARKS
CRYSTAL RIVER  FAIR      77  73  88 NE5       29.98S                  
INVERNESS      FAIR      77  77 100 CALM      29.98S                  
BROOKSVILLE    FAIR      76  75  97 N6        29.97F                  
CLEARWATER AIR FAIR      77  73  88 CALM      29.96S                  
ST PETE CLEARW FAIR      80  75  84 N8        29.96S                  
TAMPA INTL     MOCLDY    79  75  87 N6        29.96F                  
TAMPA EXEC     FAIR      77  77 100 CALM      29.96F                  
PLANT CITY     MOCLDY    77  77 100 CALM      29.97F                  
MACDILL AFB    FAIR      78  74  87 NE5       29.95S                  
PETER O KNIGHT FAIR     N/A N/A N/A NE3       29.96S                  
ST PETERSBURG  FAIR      81  75  82 NE14      29.93F                  
SARASOTA       FAIR      80  76  87 NE5       29.93R                  
VENICE         FAIR      79  77  94 NE5       29.95R                  

STATION/POSITION SKY/WX   TEMP    WIND        PRES    WAVE   SWELL
                          AIR SEA DIR/SP/G            HT/PER HT/PER
                          (F)     (DEG/KT/KT) (MB)    (FT/S) (FT/S)
27.3N   84.2W                 85                N/A     6/ 6
CLEARWATER BEACH           79 86   20/  8/ 10 1015.0
MIDDLE TAMPA BAY           80      60/ 13/ 15 1014.6
VENICE                     79 86   30/  7/  9 1013.7F

$$
FLZ066-069-070-075>078-162-262-165-265-150800-
SOUTHWEST FLORIDA AND KEYS
  
CITY           SKY/WX    TMP DP  RH WIND       PRES   REMARKS
PUNTA GORDA    FAIR      77  77 100 NE5       29.94S                  
FT MYERS       FAIR      77  75  93 W3        29.93R                  
SOUTHWEST INTL FAIR      77  75  93 CALM      29.93R                  
NAPLES         FAIR      79  77  94 E3        29.92S                  
MARCO ISLAND   FAIR      77  76  96 CALM      29.94S                  
IMMOKALEE      FAIR      77  75  94 NE3       29.90F                  
MARATHON       FAIR      83  77  82 CALM      29.92S                  
KEY WEST NAS   MOCLDY    82  78  88 CALM      29.92F                  
KEY WEST INTL  MOCLDY    82  79  90 CALM      29.92F                  

STATION/POSITION SKY/WX   TEMP    WIND        PRES    WAVE   SWELL
                          AIR SEA DIR/SP/G            HT/PER HT/PER
                          (F)     (DEG/KT/KT) (MB)    (FT/S) (FT/S)
NAPLES                     78 85   50/  1/  6 1013.4
26.0N   85.6W              83 85  120/ 14/ 16 1013.0F
DRY TORTUGAS               84     150/  4/  5 1013.5
SOMBRERO KEY               84     200/  6/  8 1013.5F
LONG KEY                   82                 1012.1F

$$
FLZ067-068-071>074-168-172>174-150800-
SOUTHEAST FLORIDA 
  
CITY           SKY/WX    TMP DP  RH WIND       PRES   REMARKS
W PALM BEACH   MOCLDY    77  75  93 W7        29.89F                  
FT LAUDER-EXEC FAIR      79  76  90 W5        29.89F                  
FT LAUDERDALE  MOCLDY    79  76  90 W5        29.89F                  
POMPANO BEACH  FAIR      80  75  84 W6        29.89F                  
PEMBROKE PINES FAIR      80  76  87 W3        29.91F                  
OPA LOCKA      FAIR      79  78  97 W6        29.91F                  
MIAMI          FAIR      80  76  87 W6        29.91F                  
WEST KENDALL   MOCLDY    78  78 100 CALM      29.91F                  
HOMESTEAD      MOCLDY    78  77  96 NW3       29.91S                  

STATION/POSITION SKY/WX   TEMP    WIND        PRES    WAVE   SWELL
                          AIR SEA DIR/SP/G            HT/PER HT/PER
                          (F)     (DEG/KT/KT) (MB)    (FT/S) (FT/S)
VIRGINIA KEY               80 86  290/  5/  7 1012.6
LAKE WORTH                 79 85  300/  7/ 10 1013.4F
FOWEY ROCKS                81 84  310/ 11/ 12 1013.3F
SETTLEMENT POINT           83     310/ 16/ 17 1010.8F

$$